SL-16 DEB, 22616

Orbit data source: Space-Track

SL-16 DEB, 22616 is space debris in LEO originally from a launch on Fri, 26 Mar 1993 UTC launched from the Tyuratam Missile And Space Complex (TTMTR). Debris objects in space refer to the collection of defunct objects orbiting the Earth. Examples of debris include non-operational satellites, rocket bodies, and fragments generated from explosions, collisions, or faulty payload assembly.

Loading next visibility...
Identifier
22616, 1993-016AA
Orbit
LEO
Country
Flag of CISCIS
Related business
Manufacturer
Unknown
Mission
Spacecraft
Bus & Motor
Unknown
Mass
Unknown
Launch date (UTC)
1993-03-26 (33 years ago)
Launch vehicle
Unknown
Launch site
Tyuratam Missile And Space Complex (TTMTR)
Object type
Payload
Rocket body
Debris
Shape & HBR
Unknown shape, 0.1 m
Radar Cross Section
Medium (>0.1 m² and <1 m²)

Expand to show TLE details & history
Last TLE update: 2 days ago

TLE from 2 days ago
0 SL-16 DEB
1 22616U 93016AA  26171.19399961  .00000064  00000-0  10010-3 0  9995
2 22616  70.9961 252.3077 0186820 174.0142 214.6405 13.74028681665505
Epoch: 2026-06-20T04:39Z
TLE epoch observation values (Epoch: 2026-06-20T04:39:21.566Z)
Latitude
25.88962°
Longitude
-76.37132°
Altitude
1,101.739 km
Speed
7.247 km/s
True Right ascension
17h 27m 31s
True Declination
25° 45' 40"
Sunlit
Object was in full shadow at epoch
Visualization orbit readout
Latitude
Unknown
Longitude
Unknown
Altitude
Unknown
Speed
Unknown
Apparent Right ascension
Unknown
Apparent Declination
Unknown
Sunlit
N/A
Visualization observer readout
Local Sidereal Time
23:20:19
Azimuth
Unknown
Elevation
Unknown
Doppler factor
Unknown
Orbital elements
Apogee altitude
1,120.63 km
Perigee altitude
845.585 km
Semi-major axis
7,361.244 km
Eccentricity
0.01868
Inclination
70.9961°
RAAN
252.3077°
Arg. of periapsis
174.0142°
True anomaly
213.44666°
Mean anomaly
214.6405°
Eccentric anomaly
214.0413°
Mean motion
3.4365 °/min
Orbital period
104.76 mins
BSTAR
0.0001001
Loading maneuver chart data...
Computing Atmospheric mass density...
Loading historical data...
Loading historical data...
Loading historical data...
Loading historical data...
Loading historical data...
Loading historical data...
Loading historical data...

Documentation

Showing up to 5 results
|